[[{"header":{"parameterUnit":"m.s-1","parameterCategory":1,"la1":30.2991,"la2":30.254,"lo1":-89.0895,"lo2":-89.0444,"dy":0.0017,"dx":0.0017,"nx":28,"ny":28,"refTime":"2024-07-11T21:00:00:Z","depth":0,"parameterNumber":2,"parameterNumberName":"U-component_of_WINDS"},"data":[0,0,0,0,0,0,0,0,0,0,0,0,0,0,0,0,0,0,0,0,0,0,0,0,0,0,0,0,0,0,0,0,0,0,0,0,0,0,0,0,0,0,0,0,0,0,0,0,0,0,0,0,0,0,0,0,0,0,3.5565,3.5566,0,3.5639,3.5639,3.564,3.5572,3.557,3.5567,3.5564,3.5639,3.5643,3.5648,0,0,0,0,0,0,0,0,0,0,0,0,0,3.5363,3.5367,3.5565,3.5566,3.5567,3.5638,3.5639,3.564,3.5573,3.557,3.5566,3.5563,3.5638,3.5643,3.5648,0,0,0,0,0,0,0,0,0,0,0,0,0,3.5445,3.5368,3.5565,3.5542,3.554,3.5638,3.5639,3.5641,3.5574,3.557,3.5565,3.5562,3.5636,3.5642,3.5649,3.5773,0,0,3.567,3.5673,0,0,0,0,0,0,0,0,3.544,3.5453,3.5544,3.5543,3.5542,3.5592,3.5595,3.5685,3.5575,3.5561,3.5564,3.556,3.5627,3.5634,3.5657,3.5777,3.578,3.567,3.5675,3.5677,3.5679,0,0,0,0,0,0,0,3.5435,3.5449,3.5594,3.5546,3.5544,3.5527,3.5534,3.5612,3.5616,3.5562,3.5557,3.5567,3.5625,3.565,3.5658,3.5781,3.567,3.5676,3.568,3.5683,3.6002,3.6006,0,0,0,0,0,0,3.5432,3.5445,3.5592,3.5596,3.548,3.5534,3.5542,3.558,3.5615,3.5616,3.557,3.5563,3.5641,3.565,3.566,3.5805,3.5677,3.5684,3.5688,3.5998,3.6003,3.6008,0,0,0,0,0,0,3.5428,3.5446,3.5589,3.5519,3.5536,3.5542,3.5585,3.5584,3.5609,3.5621,3.5621,3.5595,3.5638,3.5651,3.5745,3.5806,3.5687,3.5693,3.5993,3.6,3.6006,3.6097,0,0,0,0,0,0,3.5422,3.5445,3.5493,3.5521,3.554,3.5673,3.5589,3.5588,3.5621,3.5612,3.5645,3.5646,3.5636,3.5735,3.5752,3.5814,3.5698,3.5987,3.5996,3.6003,3.6088,3.6106,3.6121,0,0,0,0,0,3.5415,3.5516,3.5495,3.5513,3.56,3.5677,3.5687,3.5674,3.5626,3.5673,3.5681,3.5645,3.5798,3.5745,3.5763,3.5828,3.5983,3.5993,3.6003,3.6081,3.6102,3.612,0,0,0,0,0,0,3.5495,3.5519,3.5497,3.5609,3.5641,3.5665,3.5724,3.5697,3.5743,3.5733,3.5714,3.5722,3.582,3.5834,3.5775,3.5948,3.5882,3.5897,3.5936,3.5956,3.5972,3.5965,3.5704,0,0,0,0,0,3.5526,3.5586,3.5604,3.5702,3.5719,3.5719,3.5752,3.5739,3.5771,3.5784,3.5798,3.5831,3.5885,3.5922,3.5973,3.609,3.6095,3.6144,3.616,3.6173,3.6185,3.6245,3.6266,3.604,3.604,3.604,0,0,3.5589,3.561,3.565,3.5718,3.5741,3.5803,3.5731,3.58,3.5845,3.5794,3.5883,3.5895,3.5929,3.6035,3.6082,3.6049,3.6248,3.6186,3.6197,3.6201,3.6257,3.6278,3.6297,3.6047,3.6046,3.6045,0,0,3.5737,3.576,3.5842,3.5867,3.5902,3.5902,3.5921,3.5949,3.5955,3.6044,3.6006,3.6059,3.6155,3.618,3.6205,3.636,3.6327,3.6378,3.6461,3.652,3.6537,3.6553,3.6605,3.6624,3.639,3.639,3.639,0,3.5811,3.5904,3.5888,3.5959,3.5989,3.5946,3.6027,3.6052,3.6103,3.6124,3.6087,3.6204,3.6225,3.6333,3.6371,3.6394,3.6414,3.6373,3.6536,3.6552,3.6566,3.6615,3.6635,3.6395,3.6395,3.6394,3.6394,0,3.5992,3.6056,3.6119,3.6168,3.6205,3.6282,3.6276,3.6316,3.6299,3.6301,3.6391,3.6414,3.6468,3.6493,3.6478,3.6599,3.6577,3.6539,3.6472,3.6593,3.6639,3.6658,3.6403,3.6401,3.64,3.6398,0,0,3.6191,3.6229,3.6252,3.6273,3.6308,3.6357,3.6431,3.6483,3.6516,3.6553,3.6612,3.6693,3.6657,3.6686,3.6673,3.6725,3.6842,3.6679,3.668,3.6706,3.6973,3.7,3.7022,3.6822,3.6825,3.6828,3.6969,0,3.6337,3.6464,3.6452,3.6573,3.663,3.6589,3.6653,3.6681,3.6685,3.6734,3.6739,3.6795,3.6745,3.6761,3.6811,3.6817,3.6895,3.6807,3.6874,3.6877,3.6864,3.7047,3.7076,3.7208,3.6988,3.6991,3.6993,0,3.6524,3.6566,3.6692,3.6717,3.674,3.6798,3.6843,3.6891,3.6922,3.6921,3.6952,3.693,3.7002,3.6935,3.7033,3.6973,3.7,3.7008,3.7012,3.7016,3.694,3.7052,3.725,3.7269,3.7022,3.7019,3.7017,0,3.6652,3.6741,3.6827,3.6846,3.6878,3.6918,3.6933,3.696,3.6991,3.7031,3.705,3.7099,3.7124,3.7162,3.7152,3.7105,3.7251,3.7184,3.725,3.725,3.7281,3.7278,3.7482,3.7303,3.7303,3.7303,3.7302,0,3.6815,3.6893,3.6884,3.6937,3.7023,3.7007,3.7092,3.7102,3.7125,3.7177,3.7146,3.7196,3.7182,3.7231,3.7224,3.7304,3.7317,3.7317,3.7313,3.7318,3.7317,3.7333,3.7322,3.7308,3.7307,3.7306,3.7305,0,3.6972,3.6969,3.706,3.7082,3.7089,3.7151,3.7169,3.7218,3.7219,3.7286,3.7301,3.7304,3.7359,3.7354,3.7417,3.7412,3.751,3.7498,3.75,3.7496,3.7561,3.7554,3.778,3.7807,3.7614,3.7616,3.7617,0,3.7074,3.7133,3.7161,3.7194,3.7211,3.7265,3.7297,3.7283,3.7317,3.7355,3.7398,3.7451,3.7492,3.7583,3.759,3.7637,3.7623,3.77,3.763,3.7632,3.7621,3.7616,3.762,3.7712,3.7714,3.7716,3.7718,0,3.7255,3.7251,3.7297,3.7344,3.7382,3.7418,3.745,3.7479,3.7468,3.7507,3.7564,3.7596,3.7659,3.7711,3.7755,3.7769,3.7741,3.774,3.7757,3.7761,3.7758,3.7757,3.7534,3.7734,3.7732,3.7731,3.773,3.773,3.7386,3.7435,3.7461,3.7514,3.7537,3.7567,3.7613,3.762,3.7667,3.7717,3.7706,3.7769,3.7795,3.7852,3.787,3.7918,3.789,3.7916,3.7922,3.7928,3.7934,3.7753,3.7927,3.7926,3.7926,3.7925,3.7925,0,3.7562,3.7577,3.7625,3.7671,3.7712,3.7682,3.7716,3.7751,3.7807,3.7834,3.7875,3.7938,3.7988,3.7998,3.8045,3.8082,3.807,3.8094,3.809,3.8093,3.7958,3.7937,3.8103,3.8103,3.8103,3.8103,3.8103,3.8103,3.7659,3.7739,3.7738,3.7828,3.7842,3.7903,3.7924,3.7951,3.7973,3.8045,3.8086,3.8092,3.8112,3.816,3.8203,3.8205,3.8222,3.8251,3.8247,3.8121,3.8103,3.8086,3.8065,3.8256,3.8256,3.8378,3.8379,3.838]},{"header":{"parameterUnit":"m.s-1","parameterCategory":1,"la1":30.2991,"la2":30.254,"lo1":-89.0895,"lo2":-89.0444,"dy":0.0017,"dx":0.0017,"nx":28,"ny":28,"refTime":"2024-07-11T21:00:00:Z","depth":0,"parameterNumber":3,"parameterNumberName":"V-component_of_WINDS"},"data":[0,0,0,0,0,0,0,0,0,0,0,0,0,0,0,0,0,0,0,0,0,0,0,0,0,0,0,0,0,0,0,0,0,0,0,0,0,0,0,0,0,0,0,0,0,0,0,0,0,0,0,0,0,0,0,0,0,0,1.3912,1.3912,0,1.3894,1.3894,1.3894,1.3847,1.3846,1.3845,1.3844,1.3825,1.3825,1.3826,0,0,0,0,0,0,0,0,0,0,0,0,0,1.3905,1.3906,1.3912,1.3912,1.3912,1.3894,1.3894,1.3893,1.3847,1.3846,1.3845,1.3843,1.3825,1.3825,1.3826,0,0,0,0,0,0,0,0,0,0,0,0,0,1.39,1.3906,1.3912,1.3886,1.3884,1.3894,1.3894,1.3893,1.3847,1.3846,1.3844,1.3843,1.3825,1.3825,1.3826,1.3859,0,0,1.3828,1.3828,0,0,0,0,0,0,0,0,1.39,1.39,1.389,1.3888,1.3885,1.3871,1.3884,1.3882,1.3848,1.3861,1.3844,1.3842,1.3841,1.3841,1.384,1.3859,1.3858,1.3828,1.3828,1.3828,1.3829,0,0,0,0,0,0,0,1.3901,1.3901,1.3905,1.389,1.3887,1.3875,1.3873,1.3884,1.386,1.386,1.3856,1.3855,1.384,1.384,1.384,1.3857,1.3828,1.3828,1.3829,1.3829,1.39,1.3902,0,0,0,0,0,0,1.3905,1.3901,1.3906,1.3904,1.3889,1.3877,1.3874,1.3877,1.386,1.3855,1.3856,1.3853,1.384,1.3839,1.3839,1.3876,1.3828,1.3829,1.3829,1.3899,1.3901,1.3902,0,0,0,0,0,0,1.3905,1.3906,1.3906,1.3902,1.3901,1.3878,1.3882,1.3878,1.3878,1.3857,1.3852,1.3861,1.3838,1.3838,1.3854,1.3874,1.3829,1.383,1.3897,1.3899,1.3901,1.3951,0,0,0,0,0,0,1.3905,1.3906,1.3919,1.3903,1.3902,1.3923,1.3884,1.3878,1.3879,1.3874,1.386,1.3856,1.3837,1.3854,1.3855,1.3874,1.383,1.3895,1.3898,1.3901,1.3947,1.3954,1.396,0,0,0,0,0,1.3905,1.3934,1.392,1.3921,1.3917,1.3924,1.3923,1.3901,1.3881,1.3893,1.388,1.3857,1.3872,1.3856,1.3857,1.3877,1.3894,1.3897,1.39,1.3944,1.3953,1.396,0,0,0,0,0,0,1.3954,1.3931,1.3916,1.394,1.3934,1.3916,1.3931,1.3911,1.3911,1.3906,1.3879,1.3876,1.3896,1.3888,1.387,1.3907,1.3879,1.3883,1.3912,1.392,1.3926,1.3928,1.3831,0,0,0,0,0,1.3967,1.3975,1.3955,1.3978,1.3976,1.3954,1.3956,1.394,1.3932,1.3929,1.3917,1.3911,1.3914,1.3917,1.3918,1.3946,1.3941,1.396,1.3967,1.3972,1.3976,1.3988,1.3996,1.3913,1.3913,1.3913,0,0,1.3995,1.3984,1.3991,1.3988,1.3981,1.3989,1.3952,1.3963,1.3968,1.3931,1.3945,1.3936,1.3927,1.3948,1.3957,1.3942,1.3997,1.3977,1.3981,1.3981,1.3992,1.4,1.4007,1.3916,1.3915,1.3915,0,0,1.405,1.4043,1.4061,1.4055,1.4045,1.403,1.4035,1.4019,1.4012,1.4026,1.3998,1.4003,1.401,1.4004,1.4002,1.4053,1.4032,1.4055,1.4089,1.4102,1.4108,1.4114,1.4131,1.4137,1.4058,1.4059,1.4059,0,1.4086,1.4097,1.4073,1.4084,1.4083,1.405,1.4068,1.4063,1.4055,1.4054,1.4038,1.4044,1.4036,1.4055,1.4068,1.4067,1.4071,1.4056,1.4109,1.4115,1.4119,1.4135,1.4142,1.4061,1.4061,1.4061,1.406,0,1.4141,1.4149,1.4165,1.4157,1.4158,1.4173,1.415,1.4154,1.4137,1.4123,1.4137,1.4126,1.4124,1.4127,1.4111,1.4144,1.4135,1.4114,1.4085,1.413,1.4145,1.4151,1.4065,1.4064,1.4063,1.4063,0,0,1.4227,1.4204,1.4211,1.4206,1.4192,1.4198,1.421,1.4208,1.4212,1.4207,1.4216,1.4221,1.4202,1.42,1.4182,1.4193,1.4233,1.4171,1.4171,1.4182,1.4267,1.4281,1.4289,1.4219,1.422,1.4221,1.4267,0,1.4277,1.4298,1.4276,1.43,1.4306,1.4274,1.4285,1.4277,1.4265,1.4268,1.4254,1.4258,1.4233,1.4231,1.4241,1.4226,1.425,1.4223,1.4226,1.4227,1.4229,1.4297,1.4312,1.4356,1.4273,1.4274,1.4274,0,1.4339,1.4337,1.4362,1.4345,1.4347,1.4357,1.4353,1.4356,1.4347,1.4337,1.4334,1.4313,1.4323,1.4295,1.4308,1.4291,1.429,1.4284,1.4285,1.4283,1.4253,1.4296,1.437,1.4376,1.4283,1.4282,1.4282,0,1.4397,1.44,1.4415,1.4412,1.4394,1.4401,1.4394,1.4383,1.4383,1.4379,1.4378,1.4376,1.4375,1.4373,1.4352,1.4334,1.4367,1.4338,1.4358,1.4359,1.4366,1.4366,1.444,1.4368,1.4368,1.4368,1.4368,0,1.4455,1.4472,1.444,1.445,1.4466,1.4441,1.4458,1.4447,1.4438,1.4444,1.4416,1.4422,1.4394,1.4397,1.438,1.4393,1.4392,1.4384,1.4379,1.4386,1.4387,1.4385,1.4381,1.4369,1.4369,1.4369,1.4368,0,1.4523,1.4503,1.4517,1.4498,1.4493,1.4506,1.449,1.4497,1.4483,1.449,1.4491,1.4468,1.447,1.4448,1.4446,1.4435,1.4455,1.4445,1.4458,1.4454,1.4476,1.4473,1.455,1.4559,1.4483,1.4483,1.4484,0,1.4561,1.4572,1.4554,1.4556,1.455,1.4554,1.4553,1.4528,1.4529,1.4518,1.4526,1.4526,1.4524,1.4528,1.4511,1.4509,1.4498,1.4525,1.4498,1.4504,1.4497,1.4496,1.4497,1.4531,1.4532,1.4533,1.4533,0,1.463,1.4619,1.4619,1.4616,1.4616,1.4612,1.4607,1.461,1.4583,1.4584,1.4586,1.4584,1.4581,1.4581,1.4575,1.4567,1.4545,1.4542,1.4547,1.4553,1.456,1.4555,1.4472,1.454,1.454,1.4539,1.4539,1.4539,1.4683,1.4691,1.4679,1.468,1.4673,1.4668,1.4674,1.466,1.4661,1.4656,1.4641,1.4645,1.4634,1.4624,1.4617,1.4619,1.4606,1.4613,1.4614,1.4616,1.4619,1.456,1.4618,1.4618,1.4618,1.4618,1.4618,0,1.4749,1.474,1.4741,1.4734,1.4734,1.4714,1.4706,1.4708,1.4712,1.4703,1.4702,1.4703,1.4702,1.4684,1.4681,1.4686,1.4676,1.4686,1.4684,1.4683,1.4632,1.4628,1.4694,1.4694,1.4694,1.4694,1.4694,1.4694,1.4784,1.4796,1.4784,1.4792,1.4783,1.4786,1.4783,1.4778,1.4771,1.4773,1.4772,1.4761,1.4748,1.4744,1.4742,1.4736,1.4736,1.4749,1.4741,1.4694,1.4686,1.4679,1.4675,1.475,1.475,1.4791,1.4791,1.4791]}]]